# Mixing ratio of CO2 (xCO2) in dry air measured onboard R/V Mirai (NODC Code: unknown) of the Japan Marine Science and Technology Center (JAMSTEC).,,,,,,,,,,,,,,,,,,,,,,
# Measured by Meteorological Research Institute. ,,,,,,,,,,,,,,,,,,,,,,
"# Ver. 3.0; August, 2005",,,,,,,,,,,,,,,,,,,,,,
# PI : H. Y. Inoue,,,,,,,,,,,,,,,,,,,,,,
# Concetrarion scale = MRI87,,,,,,,,,,,,,,,,,,,,,,
# Date and Time = UTC,,,,,,,,,,,,,,,,,,,,,,
"# Quality flag (F); good=2, questionable=3, bad =4, not reported = 5, no data =9",,,,,,,,,,,,,,,,,,,,,,
# Data and Cruise Report: http://www.jamstec.go.jp/mirai/track_line/MR02-K02.html,,,,,,,,,,,,,,,,,,,,,,
Ship,Cruise,Serial No.,Date,,,Time,,Latitude,Longitude,xCO2_Air,F,xCO2_Sea,F,Wind_Dir,Wind_Spd,Atm_Prs,Atm_Tmp.,SST,F,SSS,F,pH2O
,,,Year,Month,Day,Hour,Min.,Deg.,Deg.,ppm,,ppm,,Deg.,m/s,hPa,deg.C,deg.C,,,,hPa
Mirai,MR02K2,1,2002,2,22,10,38,39.9346,142.298,-9.99,9,352.55,2,158,4.4,1008.26,2.4,2.74,2,34.4,2,7.295
Mirai,MR02K2,2,2002,2,22,10,50,39.8853,142.3271,-9.99,9,370.76,2,150,3.8,1008.16,3,2.1,2,32.693,2,6.97
Mirai,MR02K2,3,2002,2,22,10,56,39.8587,142.3423,380.64,2,-9.99,9,167,2.4,1008.06,3.1,2.04,2,32.735,2,6.94
Mirai,MR02K2,4,2002,2,22,11,2,39.8336,142.3564,380.83,2,-9.99,9,144,5.4,1008.01,3.3,2.13,2,32.843,2,6.985
Mirai,MR02K2,5,2002,2,22,11,17,39.7745,142.389,-9.99,9,381.7,2,147,5.2,1008.1,3.7,1.89,2,32.978,2,6.866
Mirai,MR02K2,6,2002,2,22,11,29,39.7228,142.4116,-9.99,9,403.91,2,192,3.8,1007.93,3.8,1.69,2,33.083,2,6.768
Mirai,MR02K2,7,2002,2,22,12,8,39.5571,142.4862,-9.99,9,388.45,2,239,10.4,1008.01,5.1,2.85,2,33.353,2,7.352
Mirai,MR02K2,8,2002,2,22,12,20,39.5071,142.51,-9.99,9,395.97,2,254,10.7,1008.14,5.3,2.89,2,34.306,2,7.373
Mirai,MR02K2,9,2002,2,22,12,26,39.4812,142.5229,380.55,2,-9.99,9,261,8,1008.46,5.5,2.77,2,33.062,2,7.31
Mirai,MR02K2,10,2002,2,22,12,32,39.4569,142.5353,380.7,2,-9.99,9,257,9.1,1008.3,5.3,2.46,2,33.032,2,7.151
Mirai,MR02K2,11,2002,2,22,12,47,39.3987,142.5651,-9.99,9,399.62,2,262,9,1008.29,5.1,1.74,2,32.814,2,6.793
Mirai,MR02K2,12,2002,2,22,12,59,39.349,142.5901,-9.99,9,403.57,2,269,7.9,1008.18,5.3,1.39,2,32.782,2,6.624
Mirai,MR02K2,13,2002,2,22,13,38,39.1876,142.6691,-9.99,9,397.55,2,238,4.8,1008.4,4.2,2.38,2,32.808,2,7.11
Mirai,MR02K2,14,2002,2,22,13,50,39.1387,142.6927,-9.99,9,385.08,2,250,7.9,1008.28,4.7,4.26,2,32.948,2,8.121
Mirai,MR02K2,15,2002,2,22,13,56,39.113,142.7059,380.65,2,-9.99,9,252,9.2,1008.25,5.3,5.7,2,33.312,2,8.979
Mirai,MR02K2,16,2002,2,22,14,2,39.0889,142.7192,380.05,2,-9.99,9,235,7.2,1008.38,5.3,6,2,33.588,2,9.168
Mirai,MR02K2,17,2002,2,22,14,17,39.0324,142.7521,-9.99,9,374.88,2,253,11.6,1008.01,6.1,4.89,2,33.558,2,8.487
Mirai,MR02K2,18,2002,2,22,14,29,38.984,142.7791,-9.99,9,365.45,2,265,11.1,1007.97,6.6,5.93,2,33.508,2,9.124
Mirai,MR02K2,19,2002,2,22,15,8,38.8275,142.8663,-9.99,9,358.92,2,281,11.4,1008.6,6.2,6.1,2,33.585,2,9.232
Mirai,MR02K2,20,2002,2,22,15,20,38.7775,142.8908,-9.99,9,357.7,2,286,12.1,1008.62,6,6.29,2,33.609,2,9.354
Mirai,MR02K2,21,2002,2,22,15,26,38.7513,142.9037,381.05,2,-9.99,9,283,10.6,1008.73,6.1,6.59,2,33.64,2,9.549
Mirai,MR02K2,22,2002,2,22,15,32,38.7264,142.9155,380.9,2,-9.99,9,277,9.3,1009.06,6.2,6.69,2,33.713,2,9.615
Mirai,MR02K2,23,2002,2,22,15,47,38.6678,142.9436,-9.99,9,365.12,2,277,10.4,1009.13,6.2,6.67,2,33.725,2,9.602
Mirai,MR02K2,24,2002,2,22,15,59,38.6177,142.9674,-9.99,9,366.56,2,278,12,1009.2,6.4,6.73,2,33.741,2,9.641
Mirai,MR02K2,25,2002,2,22,16,38,38.4542,143.0438,-9.99,9,373.68,2,286,12.8,1009.5,6.4,6.1,2,33.64,2,9.232
Mirai,MR02K2,26,2002,2,22,16,50,38.4044,143.0686,-9.99,9,376.58,2,285,15.2,1009.48,6.4,6.12,2,33.639,2,9.244
Mirai,MR02K2,27,2002,2,22,16,56,38.3786,143.0821,382.46,2,-9.99,9,291,14.1,1009.45,6.3,6.13,2,33.654,2,9.251
Mirai,MR02K2,28,2002,2,22,17,2,38.3543,143.0953,382.48,2,-9.99,9,294,15.3,1009.37,6.3,6.17,2,33.655,2,9.276
Mirai,MR02K2,29,2002,2,22,17,17,38.2984,143.1299,-9.99,9,366.92,2,292,12.7,1009.45,6.5,7.06,2,33.638,2,9.863
Mirai,MR02K2,30,2002,2,22,17,29,38.2544,143.162,-9.99,9,347.3,2,301,14.1,1009.56,7.2,13.17,2,34.274,2,14.85
Mirai,MR02K2,31,2002,2,22,18,8,38.102,143.2552,-9.99,9,343.1,2,306,13.4,1010.08,7.4,14.47,2,34.68,2,16.16
Mirai,MR02K2,32,2002,2,22,18,20,38.053,143.2754,-9.99,9,342.28,2,302,14.1,1010.2,7.4,14.43,2,34.687,2,16.12
Mirai,MR02K2,33,2002,2,22,18,26,38.0276,143.2857,381.48,2,-9.99,9,310,16.3,1010.22,7.5,14.61,2,34.674,2,16.3
Mirai,MR02K2,34,2002,2,22,18,32,38.0033,143.2951,381.97,2,-9.99,9,305,12.8,1010.29,7.7,14.7,2,34.693,2,16.4
Mirai,MR02K2,35,2002,2,22,18,47,37.9467,143.3217,-9.99,9,336.22,2,320,16.8,1010.53,7.4,14.78,2,34.705,2,16.48
Mirai,MR02K2,36,2002,2,22,18,59,37.9001,143.3417,-9.99,9,334.46,2,306,19.4,1010.49,7.4,15.01,2,34.711,2,16.73
Mirai,MR02K2,37,2002,2,22,19,38,37.7472,143.406,-9.99,9,333.09,2,311,19.9,1010.94,8.4,14.96,2,34.714,2,16.67
Mirai,MR02K2,38,2002,2,22,19,50,37.7034,143.425,-9.99,9,330.75,2,311,20.5,1011.25,7.8,15.11,2,34.721,2,16.84
Mirai,MR02K2,39,2002,2,22,19,56,37.6801,143.4352,380.9,2,-9.99,9,311,18.8,1011.09,8.2,15.17,2,34.723,2,16.9
Mirai,MR02K2,40,2002,2,22,20,2,37.6577,143.4441,379.33,2,-9.99,9,315,19.9,1011.05,8.1,15.21,2,34.724,2,16.94
Mirai,MR02K2,41,2002,2,22,20,16,37.6051,143.4691,-9.99,9,330.92,2,310,17.9,1011.12,8.4,15.21,2,34.728,2,16.94
Mirai,MR02K2,42,2002,2,22,20,29,37.5596,143.4919,-9.99,9,332.51,2,304,18.1,1011.14,8.1,15.08,2,34.727,2,16.8
Mirai,MR02K2,43,2002,2,22,21,8,37.4094,143.5621,-9.99,9,330.95,2,314,26.1,1010.93,8.4,15.11,2,34.73,2,16.84
Mirai,MR02K2,44,2002,2,22,21,20,37.3614,143.5831,-9.99,9,332.98,2,310,20.6,1010.42,8.3,14.85,2,34.734,2,16.56
Mirai,MR02K2,45,2002,2,22,21,26,37.3352,143.5956,379.53,2,-9.99,9,320,21.1,1010.76,8.3,14.79,2,34.71,2,16.49
Mirai,MR02K2,46,2002,2,22,21,32,37.3108,143.6071,380.15,2,-9.99,9,315,18.8,1010.96,8.2,14.77,2,34.702,2,16.47
Mirai,MR02K2,47,2002,2,22,21,46,37.2529,143.6341,-9.99,9,333.64,2,320,18.1,1011.21,8.4,15.12,2,34.708,2,16.85
Mirai,MR02K2,48,2002,2,22,21,58,37.2036,143.6547,-9.99,9,332.95,2,320,18.3,1011.21,8.3,15.23,2,34.724,2,16.96
Mirai,MR02K2,49,2002,2,22,22,38,37.0411,143.7286,-9.99,9,337.28,2,320,16.3,1012.49,8.2,14.44,2,34.715,2,16.13
Mirai,MR02K2,50,2002,2,22,22,50,36.992,143.7523,-9.99,9,349.67,2,319,19,1012.85,7.5,13.97,2,34.675,2,15.64
Mirai,MR02K2,51,2002,2,22,22,56,36.966,143.7643,380.49,2,-9.99,9,324,17.4,1012.78,7.6,13.67,2,34.652,2,15.34
Mirai,MR02K2,52,2002,2,22,23,2,36.9418,143.7755,379.17,2,-9.99,9,309,14.2,1012.8,7.9,13.32,2,34.624,2,14.99
Mirai,MR02K2,53,2002,2,22,23,16,36.884,143.8029,-9.99,9,367.8,2,324,18.7,1013.14,7.4,12.27,2,34.541,2,14
Mirai,MR02K2,54,2002,2,22,23,28,36.8363,143.8265,-9.99,9,352.42,2,315,16.8,1013.06,7.5,12.07,2,34.426,2,13.81
Mirai,MR02K2,55,2002,2,23,0,8,36.6788,143.9081,-9.99,9,356.54,2,312,14.7,1013.65,7.7,12.29,2,34.458,2,14.02
Mirai,MR02K2,56,2002,2,23,0,20,36.6298,143.9339,-9.99,9,352.05,2,327,14.3,1013.65,7.8,11.89,2,34.448,2,13.65
Mirai,MR02K2,57,2002,2,23,0,26,36.6041,143.9471,380.53,2,-9.99,9,325,13.5,1013.72,7.6,11.75,2,34.381,2,13.52
Mirai,MR02K2,58,2002,2,23,0,32,36.5797,143.9598,379.88,2,-9.99,9,324,15.6,1013.56,7.6,11.73,2,34.36,2,13.51
Mirai,MR02K2,59,2002,2,23,0,46,36.5214,143.9902,-9.99,9,347.34,2,319,11.9,1013.68,7.7,12.31,2,34.407,2,14.04
Mirai,MR02K2,60,2002,2,23,0,58,36.4717,144.0164,-9.99,9,345.62,2,325,11.3,1013.77,7.6,12.66,2,34.504,2,14.36
Mirai,MR02K2,61,2002,2,23,1,38,36.3079,144.1011,-9.99,9,347.32,2,351,13.5,1013.69,8.3,12.51,2,34.399,2,14.22
Mirai,MR02K2,62,2002,2,23,1,50,36.2576,144.1267,-9.99,9,354.29,2,337,12.2,1013.65,8.1,14.37,2,34.564,2,16.05
Mirai,MR02K2,63,2002,2,23,1,56,36.2313,144.1395,379.92,2,-9.99,9,352,13.4,1013.44,8.3,14.44,2,34.646,2,16.13
Mirai,MR02K2,64,2002,2,23,2,2,36.2064,144.1507,379.26,2,-9.99,9,335,10.5,1013.45,8.1,14.25,2,34.652,2,15.93
Mirai,MR02K2,65,2002,2,23,2,16,36.1482,144.1762,-9.99,9,377.22,2,348,12,1013.45,8.4,13.78,2,34.608,2,15.45
Mirai,MR02K2,66,2002,2,23,2,28,36.0994,144.1971,-9.99,9,378.71,2,338,9.6,1013.68,8.5,13.07,2,34.575,2,14.75
Mirai,MR02K2,67,2002,2,23,3,8,35.932,144.2923,-9.99,9,335.18,2,344,11,1012.73,9.5,16.04,2,34.543,2,17.88
Mirai,MR02K2,68,2002,2,23,3,20,35.878,144.3218,-9.99,9,335.39,2,338,10.1,1012.76,9.6,16.89,2,34.705,2,18.87
Mirai,MR02K2,69,2002,2,23,3,26,35.8497,144.337,379.79,2,-9.99,9,337,10.1,1012.66,9.1,17.04,2,34.727,2,19.05
Mirai,MR02K2,70,2002,2,23,3,32,35.8229,144.351,379.46,2,-9.99,9,343,10.5,1012.56,9.1,17.11,2,34.739,2,19.13
Mirai,MR02K2,71,2002,2,23,3,46,35.7595,144.3827,-9.99,9,335.06,2,8,12.9,1012.42,9.9,17.15,2,34.745,2,19.18
Mirai,MR02K2,72,2002,2,23,3,58,35.7053,144.4098,-9.99,9,335.12,2,5,11.4,1012.49,9.6,17.23,2,34.739,2,19.28
Mirai,MR02K2,73,2002,2,23,4,38,35.5262,144.5036,-9.99,9,319.38,2,5,11.9,1012.3,9.6,18.7,2,34.779,2,21.14
Mirai,MR02K2,74,2002,2,23,4,50,35.4731,144.5307,-9.99,9,317.44,2,7,12.4,1011.9,10.2,18.6,2,34.802,2,21.01
Mirai,MR02K2,75,2002,2,23,4,56,35.4453,144.5448,378.34,2,-9.99,9,355,11,1011.89,9.9,18.59,2,34.805,2,21
Mirai,MR02K2,76,2002,2,23,5,2,35.4192,144.5577,378.37,2,-9.99,9,355,12.8,1011.73,10,18.58,2,34.803,2,20.98
Mirai,MR02K2,77,2002,2,23,5,16,35.3576,144.5851,-9.99,9,313.6,2,348,8.6,1012,10.1,18.7,2,34.806,2,21.14
Mirai,MR02K2,78,2002,2,23,5,28,35.3051,144.6047,-9.99,9,312.87,2,15,10.7,1011.94,10.6,18.41,2,34.822,2,20.76
Mirai,MR02K2,79,2002,2,23,6,8,35.1345,144.666,-9.99,9,311.92,2,13,8.9,1011.93,10.5,18.92,2,34.785,2,21.43
Mirai,MR02K2,80,2002,2,23,6,20,35.0826,144.6817,-9.99,9,315.17,2,11,8.6,1011.88,10,18.98,2,34.792,2,21.51
Mirai,MR02K2,81,2002,2,23,6,26,35.0547,144.69,378.58,2,-9.99,9,3,8.1,1011.88,10.4,18.87,2,34.805,2,21.37
Mirai,MR02K2,82,2002,2,23,6,32,35.0293,144.6975,378.53,2,-9.99,9,22,9.6,1011.88,10.4,18.65,2,34.815,2,21.07
Mirai,MR02K2,83,2002,2,23,6,46,34.9698,144.7193,-9.99,9,319.39,2,2,8.8,1012,10.4,18.52,2,34.793,2,20.9
Mirai,MR02K2,84,2002,2,23,6,58,34.9198,144.7402,-9.99,9,318.31,2,20,6.7,1011.77,10.7,18.53,2,34.788,2,20.92
Mirai,MR02K2,85,2002,2,23,7,38,34.7599,144.8119,-9.99,9,318.01,2,24,8.6,1012.4,10.9,18.88,2,34.779,2,21.38
Mirai,MR02K2,86,2002,2,23,7,50,34.7121,144.8327,-9.99,9,318.41,2,11,7.4,1012.08,10.8,18.94,2,34.778,2,21.46
Mirai,MR02K2,87,2002,2,23,7,56,34.6866,144.843,378.64,2,-9.99,9,0,7.5,1012.48,10.6,18.96,2,34.778,2,21.49
Mirai,MR02K2,88,2002,2,23,8,2,34.6621,144.8526,378.59,2,-9.99,9,24,7,1012.46,11,18.98,2,34.78,2,21.51
Mirai,MR02K2,89,2002,2,23,8,16,34.6037,144.8739,-9.99,9,317.62,2,31,7.4,1012.06,11.1,19.06,2,34.785,2,21.62
Mirai,MR02K2,90,2002,2,23,8,28,34.555,144.891,-9.99,9,315.47,2,14,7,1012.26,11.4,18.94,2,34.796,2,21.46
Mirai,MR02K2,91,2002,2,23,9,8,34.3976,144.9694,-9.99,9,317.56,2,35,7.4,1012.81,11.5,18.41,2,34.786,2,20.76
Mirai,MR02K2,92,2002,2,23,9,20,34.3495,144.9942,-9.99,9,316.73,2,58,6.4,1012.66,11.5,18.37,2,34.784,2,20.71
Mirai,MR02K2,93,2002,2,23,9,26,34.3243,145.0072,378.56,2,-9.99,9,32,7.4,1012.7,11.7,18.36,2,34.779,2,20.7
Mirai,MR02K2,94,2002,2,23,9,32,34.3006,145.0193,378.55,2,-9.99,9,35,7.5,1012.52,11.5,18.37,2,34.78,2,20.71
Mirai,MR02K2,95,2002,2,23,9,46,34.2449,145.048,-9.99,9,317.05,2,64,7.6,1012.45,11.7,18.41,2,34.784,2,20.76
Mirai,MR02K2,96,2002,2,23,9,58,34.1972,145.0715,-9.99,9,316.19,2,43,7.8,1012.16,11.7,18.4,2,34.781,2,20.75
Mirai,MR02K2,97,2002,2,23,10,38,34.0405,145.1475,-9.99,9,318.04,2,63,8.2,1012.08,12,18.29,2,34.787,2,20.6
Mirai,MR02K2,98,2002,2,23,10,50,33.9924,145.1705,-9.99,9,318.05,2,44,8,1011.9,12,18.32,2,34.786,2,20.64
Mirai,MR02K2,99,2002,2,23,10,56,33.967,145.1821,378.3,2,-9.99,9,47,7.8,1011.89,12.1,18.33,2,34.791,2,20.66
Mirai,MR02K2,100,2002,2,23,11,2,33.9431,145.1926,378.37,2,-9.99,9,68,7.7,1012.01,12.2,18.31,2,34.795,2,20.63
Mirai,MR02K2,101,2002,2,23,11,16,33.8876,145.2208,-9.99,9,319.66,2,30,7.9,1011.86,12.5,18.03,2,34.76,2,20.27
Mirai,MR02K2,102,2002,2,23,11,28,33.8409,145.245,-9.99,9,320.47,2,50,8.6,1012.08,12.6,18.05,2,34.758,2,20.3
Mirai,MR02K2,103,2002,2,23,12,8,33.6884,145.3245,-9.99,9,319.43,2,45,7.5,1012.12,13,18.08,2,34.758,2,20.34
Mirai,MR02K2,104,2002,2,23,12,20,33.641,145.3467,-9.99,9,319.39,2,53,7.8,1012.3,13.1,18.05,2,34.75,2,20.3
Mirai,MR02K2,105,2002,2,23,12,26,33.6161,145.3581,378.48,2,-9.99,9,51,7.6,1012.37,13.1,18.05,2,34.75,2,20.3
Mirai,MR02K2,106,2002,2,23,12,32,33.5922,145.3686,378.51,2,-9.99,9,65,8.3,1012.22,13.2,18.04,2,34.749,2,20.28
Mirai,MR02K2,107,2002,2,23,12,46,33.5363,145.3935,-9.99,9,319.51,2,52,7.3,1012.24,13.4,18.03,2,34.751,2,20.27
Mirai,MR02K2,108,2002,2,23,12,58,33.4883,145.4148,-9.99,9,319.71,2,41,7.7,1012.24,13.5,18.03,2,34.753,2,20.27
Mirai,MR02K2,109,2002,2,23,13,38,33.3309,145.4824,-9.99,9,319.22,2,25,7.1,1012.1,13.9,18.09,2,34.758,2,20.35
Mirai,MR02K2,110,2002,2,23,13,50,33.2836,145.5042,-9.99,9,320.04,2,37,7.4,1012,14.2,18.16,2,34.765,2,20.44
Mirai,MR02K2,111,2002,2,23,13,56,33.2585,145.5157,379.12,2,-9.99,9,22,7.3,1011.88,14.2,18.18,2,34.772,2,20.46
Mirai,MR02K2,112,2002,2,23,14,2,33.2346,145.5265,379.25,2,-9.99,9,29,8.3,1011.62,14.3,18.18,2,34.775,2,20.46
Mirai,MR02K2,113,2002,2,23,14,16,33.1781,145.5522,-9.99,9,320.84,2,42,7.7,1011.22,14.5,18.17,2,34.777,2,20.45
Mirai,MR02K2,114,2002,2,23,14,28,33.1296,145.5734,-9.99,9,320.81,2,39,7.1,1011.22,14.6,18.18,2,34.777,2,20.46
Mirai,MR02K2,115,2002,2,23,15,8,32.9694,145.6438,-9.99,9,319.72,2,65,6.7,1010.82,15.1,18.03,2,34.766,2,20.27
Mirai,MR02K2,116,2002,2,23,15,20,32.9197,145.6668,-9.99,9,319.89,2,43,7.8,1010.46,15.2,18.13,2,34.769,2,20.4
Mirai,MR02K2,117,2002,2,23,15,26,32.8934,145.6789,379.35,2,-9.99,9,29,8.1,1010.32,15.2,18.14,2,34.773,2,20.41
Mirai,MR02K2,118,2002,2,23,15,32,32.8684,145.6904,379.59,2,-9.99,9,28,8.4,1010.4,15.1,18.15,2,34.774,2,20.42
Mirai,MR02K2,119,2002,2,23,15,46,32.8094,145.7176,-9.99,9,320.59,2,39,7.6,1010.28,15.3,18.15,2,34.772,2,20.42
Mirai,MR02K2,120,2002,2,23,15,58,32.7597,145.7406,-9.99,9,320.34,2,53,7.3,1010.26,15.6,18.14,2,34.776,2,20.41
Mirai,MR02K2,121,2002,2,23,16,38,32.5995,145.815,-9.99,9,320.46,2,294,1.9,1010.14,16.2,18.04,2,34.762,2,20.28
Mirai,MR02K2,122,2002,2,23,16,50,32.5513,145.8385,-9.99,9,321.17,2,241,9.9,1009.72,16.4,18.02,2,34.756,2,20.26
Mirai,MR02K2,123,2002,2,23,16,56,32.5259,145.8511,379.24,2,-9.99,9,237,11.8,1009.57,16.3,18.02,2,34.755,2,20.26
Mirai,MR02K2,124,2002,2,23,17,2,32.5019,145.863,379.26,2,-9.99,9,246,10.1,1009.5,16.4,18.01,2,34.753,2,20.25
Mirai,MR02K2,125,2002,2,23,17,16,32.4446,145.8907,-9.99,9,321.58,2,250,11,1009.52,16.4,18.03,2,34.758,2,20.27
Mirai,MR02K2,126,2002,2,23,17,28,32.396,145.9139,-9.99,9,322.74,2,250,8.5,1009.5,16.3,18.03,2,34.761,2,20.27
Mirai,MR02K2,127,2002,2,23,18,8,32.2363,145.9909,-9.99,9,320.83,2,255,7.8,1009.53,16.2,18.01,2,34.76,2,20.25
Mirai,MR02K2,128,2002,2,23,18,20,32.1876,146.0141,-9.99,9,320.87,2,268,7.7,1009.52,16.1,18.01,2,34.76,2,20.25
Mirai,MR02K2,129,2002,2,23,18,26,32.1617,146.0261,378.42,2,-9.99,9,261,8,1009.49,16.2,18,2,34.761,2,20.23
Mirai,MR02K2,130,2002,2,23,18,32,32.1374,146.0375,378.55,2,-9.99,9,266,8.5,1009.62,16.1,17.99,2,34.756,2,20.22
Mirai,MR02K2,131,2002,2,23,18,46,32.0792,146.0637,-9.99,9,320.6,2,265,7.7,1009.72,16.1,17.98,2,34.758,2,20.21
Mirai,MR02K2,132,2002,2,23,18,58,32.0297,146.0861,-9.99,9,321.98,2,254,7.1,1009.76,16.2,17.94,2,34.755,2,20.16
Mirai,MR02K2,133,2002,2,23,19,38,31.8686,146.1568,-9.99,9,321.77,2,257,7.3,1010.17,16.2,17.96,2,34.756,2,20.18
Mirai,MR02K2,134,2002,2,23,19,50,31.8191,146.1789,-9.99,9,321.36,2,266,8.2,1010.38,16.2,17.96,2,34.755,2,20.18
Mirai,MR02K2,135,2002,2,23,19,56,31.7928,146.1905,377.81,2,-9.99,9,274,7.9,1010.5,16.2,17.96,2,34.753,2,20.18
Mirai,MR02K2,136,2002,2,23,20,2,31.768,146.2017,377.84,2,-9.99,9,277,8.3,1010.49,16.2,17.98,2,34.751,2,20.21
Mirai,MR02K2,137,2002,2,23,20,16,31.709,146.2285,-9.99,9,320.15,2,271,8.8,1010.57,16.2,18.04,2,34.746,2,20.28
Mirai,MR02K2,138,2002,2,23,20,28,31.6593,146.2507,-9.99,9,320.85,2,271,7.5,1010.21,16.2,18.05,2,34.751,2,20.3
Mirai,MR02K2,139,2002,2,23,21,8,31.4998,146.3233,-9.99,9,313.38,2,271,6.7,1011,16.4,19.14,2,34.857,2,21.74
Mirai,MR02K2,140,2002,2,23,21,20,31.4518,146.3446,-9.99,9,313.49,2,268,6,1010.68,16.5,19.14,2,34.861,2,21.74
Mirai,MR02K2,141,2002,2,23,21,26,31.4262,146.3556,377.62,2,-9.99,9,275,7.4,1010.64,16.5,19.14,2,34.863,2,21.74
Mirai,MR02K2,142,2002,2,23,21,32,31.4018,146.3658,377.67,2,-9.99,9,275,6.8,1010.62,16.5,19.09,2,34.868,2,21.66
Mirai,MR02K2,143,2002,2,23,21,46,31.3448,146.3923,-9.99,9,312.78,2,274,5.4,1011.13,16.6,18.63,2,34.823,2,21.05
Mirai,MR02K2,144,2002,2,23,21,58,31.2966,146.4148,-9.99,9,313.15,2,275,7.2,1011.25,16.7,18.65,2,34.803,2,21.07
Mirai,MR02K2,145,2002,2,23,22,38,31.1382,146.4895,-9.99,9,315.32,2,277,6.8,1011.76,16.8,18.36,2,34.763,2,20.7
Mirai,MR02K2,146,2002,2,23,22,50,31.0903,146.5119,-9.99,9,314.82,2,254,7.3,1011.49,16.5,18.91,2,34.791,2,21.42
Mirai,MR02K2,147,2002,2,23,22,56,31.0657,146.5243,377.28,2,-9.99,9,249,6.7,1011.62,16.4,19.09,2,34.836,2,21.67
Mirai,MR02K2,148,2002,2,23,23,2,31.0421,146.5362,377.48,2,-9.99,9,257,7,1011.64,16.4,19.16,2,34.85,2,21.77
Mirai,MR02K2,149,2002,2,23,23,16,30.9871,146.5633,-9.99,9,315.21,2,260,5.6,1011.54,16.5,19.17,2,34.856,2,21.78
Mirai,MR02K2,150,2002,2,23,23,28,30.9404,146.5833,-9.99,9,314.16,2,261,6.4,1011.64,16.2,19.15,2,34.862,2,21.76
Mirai,MR02K2,151,2002,2,24,0,8,30.7833,146.6496,-9.99,9,314.31,2,269,7.9,1012.12,16.5,18.62,2,34.768,2,21.03
Mirai,MR02K2,152,2002,2,24,0,20,30.7349,146.6707,-9.99,9,313.39,2,270,8,1012.08,16.5,18.65,2,34.823,2,21.07
Mirai,MR02K2,153,2002,2,24,0,26,30.7098,146.6827,377.18,2,-9.99,9,273,6.6,1012.08,16.7,18.72,2,34.794,2,21.17
Mirai,MR02K2,154,2002,2,24,0,32,30.6865,146.6948,377.19,2,-9.99,9,277,8.5,1011.97,16.8,19.33,2,34.789,2,22
Mirai,MR02K2,155,2002,2,24,0,46,30.6316,146.7216,-9.99,9,313.65,2,278,8.5,1011.8,16.8,19.7,2,34.874,2,22.51
Mirai,MR02K2,156,2002,2,24,0,58,30.5861,146.7424,-9.99,9,313.28,2,280,7.3,1011.82,16.6,19.73,2,34.883,2,22.55
Mirai,MR02K2,157,2002,2,24,1,38,30.4354,146.806,-9.99,9,312.71,2,292,4.7,1011.37,16.8,19.88,2,34.867,2,22.76
Mirai,MR02K2,158,2002,2,24,1,50,30.3871,146.8262,-9.99,9,313.98,2,290,5.1,1011.22,16.7,20.04,2,34.903,2,22.99
Mirai,MR02K2,159,2002,2,24,1,56,30.3616,146.8368,377.37,2,-9.99,9,277,5.8,1011.22,16.7,20.03,2,34.906,2,22.98
Mirai,MR02K2,160,2002,2,24,2,2,30.3373,146.8465,377.33,2,-9.99,9,286,4.4,1011.16,16.5,20.04,2,34.907,2,22.99
Mirai,MR02K2,161,2002,2,24,2,16,30.279,146.8693,-9.99,9,313.16,2,271,5.5,1011.08,16.1,19.97,2,34.908,2,22.89
Mirai,MR02K2,162,2002,2,24,2,28,30.2297,146.8875,-9.99,9,313.79,2,284,5.9,1010.86,16.1,20.06,2,34.905,2,23.02
Mirai,MR02K2,163,2002,2,24,3,8,30.0746,146.944,-9.99,9,313.68,2,299,8.5,1010.06,15.6,19.39,2,34.867,2,22.08
Mirai,MR02K2,164,2002,2,24,3,20,30.024,146.9677,-9.99,9,312.27,2,311,8,1010.05,15.8,19.65,2,34.831,2,22.44
Mirai,MR02K2,165,2002,2,24,3,26,29.9975,146.9807,377.31,2,-9.99,9,316,8.6,1009.89,16.1,19.94,2,34.869,2,22.85
Mirai,MR02K2,166,2002,2,24,3,32,29.9718,146.9917,377.29,2,-9.99,9,303,9.7,1010.08,16.2,20.04,2,34.892,2,22.99
Mirai,MR02K2,167,2002,2,24,3,46,29.9137,147.0167,-9.99,9,313.99,2,317,7,1009.54,16.2,20.15,2,34.882,2,23.15
Mirai,MR02K2,168,2002,2,24,3,58,29.9059,147.0152,-9.99,9,315.19,2,318,8.6,1009.61,16.5,20.18,2,34.901,2,23.19
Mirai,MR02K2,169,2002,2,24,4,38,29.9027,147.0155,-9.99,9,315.21,2,312,7,1009.2,16.3,20.18,2,34.902,2,23.19
Mirai,MR02K2,170,2002,2,24,4,50,29.9025,147.0151,-9.99,9,315.62,2,304,8.3,1009.04,16.4,20.18,2,34.902,2,23.19
Mirai,MR02K2,171,2002,2,24,4,56,29.9023,147.015,377.29,2,-9.99,9,316,7.3,1008.98,16.4,20.19,2,34.902,2,23.21
Mirai,MR02K2,172,2002,2,24,5,2,29.9019,147.015,377.42,2,-9.99,9,318,6.7,1008.96,16.6,20.19,2,34.903,2,23.21
Mirai,MR02K2,173,2002,2,24,5,16,29.9016,147.0141,-9.99,9,315.7,2,309,6.2,1008.94,16.4,20.18,2,34.903,2,23.19
Mirai,MR02K2,174,2002,2,24,5,28,29.9016,147.0138,-9.99,9,315.52,2,295,6,1009.1,16.8,20.18,2,34.902,2,23.19
Mirai,MR02K2,175,2002,2,24,6,8,29.8612,147.0284,-9.99,9,314.55,2,300,6.3,1008.97,16.8,20.19,2,34.903,2,23.21
Mirai,MR02K2,176,2002,2,24,6,20,29.8131,147.0506,-9.99,9,314.32,2,284,7.1,1009.38,16.8,20.12,2,34.889,2,23.11
Mirai,MR02K2,177,2002,2,24,6,26,29.7872,147.0624,377.28,2,-9.99,9,286,8,1009.41,16.6,20.1,2,34.894,2,23.08
Mirai,MR02K2,178,2002,2,24,6,32,29.7621,147.0736,377.37,2,-9.99,9,291,8.4,1009.2,16.6,20.09,2,34.894,2,23.06
Mirai,MR02K2,179,2002,2,24,6,46,29.7022,147.0988,-9.99,9,314.53,2,296,8,1009.34,16.8,20.1,2,34.899,2,23.08
Mirai,MR02K2,180,2002,2,24,6,58,29.6506,147.12,-9.99,9,314.47,2,303,8.1,1009.41,16.9,20.08,2,34.9,2,23.05
Mirai,MR02K2,181,2002,2,24,7,38,29.4962,147.1877,-9.99,9,316.15,2,325,9.1,1009.61,16.6,20.48,2,34.919,2,23.62
Mirai,MR02K2,182,2002,2,24,7,50,29.4464,147.2113,-9.99,9,314.99,2,328,8.3,1009.61,16.7,20.64,2,34.932,2,23.86
Mirai,MR02K2,183,2002,2,24,7,56,29.4196,147.2238,377.1,2,-9.99,9,326,8.3,1009.8,16.7,20.7,2,34.941,2,23.95
Mirai,MR02K2,184,2002,2,24,8,2,29.394,147.2356,376.9,2,-9.99,9,322,9.2,1009.82,16.8,20.73,2,34.943,2,23.99
Mirai,MR02K2,185,2002,2,24,8,16,29.3332,147.2632,-9.99,9,314.89,2,335,7.4,1010.02,16.8,20.74,2,34.947,2,24.01
Mirai,MR02K2,186,2002,2,24,8,28,29.281,147.2866,-9.99,9,314.93,2,338,6.5,1010.04,17.3,20.69,2,34.944,2,23.93
Mirai,MR02K2,187,2002,2,24,9,8,29.1204,147.3529,-9.99,9,314.72,2,318,3.9,1010.61,18,20.22,2,34.91,2,23.25
Mirai,MR02K2,188,2002,2,24,9,20,29.0661,147.375,-9.99,9,314.59,2,310,4.7,1010.73,17.9,20.19,2,34.906,2,23.21
Mirai,MR02K2,189,2002,2,24,9,26,29.0376,147.3871,376.46,2,-9.99,9,326,4.2,1010.76,18,20.19,2,34.904,2,23.21
Mirai,MR02K2,190,2002,2,24,9,32,29.0107,147.3987,376.53,2,-9.99,9,313,4.7,1010.9,18.1,20.19,2,34.904,2,23.21
Mirai,MR02K2,191,2002,2,24,9,46,28.9471,147.4261,-9.99,9,314.72,2,327,4.5,1011,18.1,20.18,2,34.904,2,23.19
Mirai,MR02K2,192,2002,2,24,9,58,28.8929,147.4492,-9.99,9,314.72,2,306,3.7,1010.84,18.3,20.18,2,34.907,2,23.19
Mirai,MR02K2,193,2002,2,24,10,37,28.7151,147.5268,-9.99,9,313.36,2,354,2.6,1010.96,18.4,19.7,2,34.885,2,22.51
Mirai,MR02K2,194,2002,2,24,10,50,28.6623,147.5506,-9.99,9,313.31,2,8,4.2,1010.97,18.1,19.61,2,34.877,2,22.39
Mirai,MR02K2,195,2002,2,24,10,56,28.6349,147.5628,376.56,2,-9.99,9,1,4.4,1011.01,17.9,19.47,2,34.871,2,22.19
Mirai,MR02K2,196,2002,2,24,11,2,28.6094,147.5746,376.62,2,-9.99,9,27,4.3,1010.88,17.9,19.18,2,34.869,2,21.8
Mirai,MR02K2,197,2002,2,24,11,16,28.5509,147.6033,-9.99,9,313.38,2,7,2.7,1010.93,17.6,18.82,2,34.806,2,21.3
Mirai,MR02K2,198,2002,2,24,11,28,28.5011,147.6279,-9.99,9,311.69,2,301,2.7,1011.04,18,18.96,2,34.8,2,21.49
Mirai,MR02K2,199,2002,2,24,12,7,28.3374,147.7132,-9.99,9,311.84,2,257,6.9,1010.62,19.6,19.59,2,34.866,2,22.36
Mirai,MR02K2,200,2002,2,24,12,19,28.2869,147.7354,-9.99,9,311.95,2,258,6.2,1010.76,19.5,19.62,2,34.861,2,22.4
Mirai,MR02K2,201,2002,2,24,12,25,28.2607,147.7473,375.51,2,-9.99,9,259,5.9,1010.76,19.5,19.58,2,34.874,2,22.34
Mirai,MR02K2,202,2002,2,24,12,32,28.2355,147.7584,375.53,2,-9.99,9,260,5.3,1010.73,19.4,19.5,2,34.858,2,22.23
Mirai,MR02K2,203,2002,2,24,12,46,28.1768,147.7836,-9.99,9,312.92,2,263,5.7,1010.97,19.3,19.51,2,34.845,2,22.25
Mirai,MR02K2,204,2002,2,24,12,58,28.127,147.8039,-9.99,9,313,2,266,4.8,1011,19.3,19.52,2,34.844,2,22.26
Mirai,MR02K2,205,2002,2,24,13,37,27.9643,147.868,-9.99,9,312.88,2,255,5.2,1010.25,19.6,19.84,2,34.864,2,22.71
Mirai,MR02K2,206,2002,2,24,13,49,27.9153,147.887,-9.99,9,318.97,2,260,5.5,1010.1,19.5,19.94,2,34.896,2,22.85
Mirai,MR02K2,207,2002,2,24,13,55,27.8893,147.8974,375.19,2,-9.99,9,266,4.8,1010.29,19.6,19.76,2,34.888,2,22.6
Mirai,MR02K2,208,2002,2,24,14,1,27.8647,147.9073,375.41,2,-9.99,9,259,4.3,1010.28,19.6,19.71,2,34.869,2,22.53
Mirai,MR02K2,209,2002,2,24,14,16,27.8079,147.9339,-9.99,9,313.57,2,259,4.5,1010.09,19.6,19.68,2,34.861,2,22.48
Mirai,MR02K2,210,2002,2,24,14,28,27.7589,147.9579,-9.99,9,314.65,2,247,5.8,1010.08,19.9,20.28,2,34.856,2,23.33
Mirai,MR02K2,211,2002,2,24,15,7,27.5899,148.0396,-9.99,9,319.01,2,243,4.4,1009.69,20.2,21.02,2,34.971,2,24.42